Weather History for Charlevoix, MI

Change the Weather History Date:

Saturday, April 21, 2012

  Actual Average Record
Temperature  
Mean Temperature 36 °F -  
Max Temperature 44 °F 51 °F 73 °F (2001)
Min Temperature 27 °F 35 °F 20 °F (2013)
Degree Days  
Heating Degree Days 30    
Moisture  
Dew Point 27 °F    
Average Humidity 71    
Maximum Humidity 99    
Minimum Humidity 37    
Precipitation  
Precipitation 0.00 in - - ()
Sea Level Pressure  
Sea Level Pressure 30.07 in    
Wind  
Wind Speed 4 mph (North)    
Max Wind Speed 10 mph    
Max Gust Speed -    
Visibility 10 miles    
Events      
Averages and records for this station are not official NWS values.
T = Trace of Precipitation, MM = Missing Value Source: NWS Daily Summary

Daily Weather History Graph

Daily Weather History Graph

Search for Another Location

Airport:

Trip Planner

Search our weather history database for the weather conditions in past years. The results will help you decide how hot, cold, wet, or windy it might be!

Date:

Astronomy

Apr. 21, 2012 Rise Set
Actual Time 6:44 AM EDT 8:35 PM EDT
Civil Twilight 6:13 AM EDT 9:06 PM EDT
Nautical Twilight 5:34 AM EDT 9:45 PM EDT
Astronomical Twilight 4:53 AM EDT 10:27 PM EDT
Moon 6:38 AM EDT (4/21) 9:19 PM EDT (4/21)
Length of Visible Light 14h 53m
Length of Day
13h 50m
New Moon, 0% of the Moon is Illuminated
Apr 21
New Moon
Apr 29
First Quarter
May 5
Full
May 12
Last Quarter
May 20
New

Hourly Weather History & Observations

Time (EDT) Temp. Windchill Dew Point Humidity Pressure Visibility Wind Dir Wind Speed Gust Speed Precip Events Conditions
12:15 AM 36.7 °F 32.0 °F 32.0 °F 83% 30.01 in 10.0 mi NNW 5.8 mph - N/A   Clear
12:34 AM 36.5 °F 33.9 °F 32.0 °F 84% 30.01 in 10.0 mi North 3.5 mph - N/A   Clear
12:55 AM 36.3 °F 32.5 °F 32.0 °F 84% 30.01 in 10.0 mi NNW 4.6 mph - N/A   Clear
1:14 AM 35.8 °F 33.0 °F 32.0 °F 86% 30.02 in 10.0 mi North 3.5 mph - N/A   Clear
1:35 AM 36.0 °F 33.3 °F 32.7 °F 88% 30.02 in 10.0 mi North 3.5 mph - N/A   Clear
1:54 AM 35.6 °F - 33.1 °F 91% 30.02 in 10.0 mi Calm Calm - N/A   Clear
2:14 AM 32.0 °F - 30.9 °F 96% 30.02 in 10.0 mi Calm Calm - N/A   Clear
2:34 AM 29.5 °F - 28.8 °F 97% 30.02 in 10.0 mi Calm Calm - N/A   Clear
2:54 AM 30.4 °F - 29.7 °F 97% 30.02 in 10.0 mi Calm Calm - N/A   Clear
3:14 AM 29.5 °F - 29.1 °F 99% 30.03 in 10.0 mi Calm Calm - N/A   Clear
3:34 AM 28.8 °F - 28.2 °F 98% 30.03 in 10.0 mi Calm Calm - N/A   Clear
3:55 AM 29.1 °F - 28.8 °F 99% 30.02 in 10.0 mi Calm Calm - N/A   Clear
4:14 AM 28.6 °F - 28.2 °F 99% 30.03 in 10.0 mi Calm Calm - N/A   Clear
4:34 AM 28.8 °F - 28.2 °F 98% 30.03 in 10.0 mi Calm Calm - N/A   Clear
4:54 AM 28.4 °F - 28.2 °F 99% 30.03 in 10.0 mi Calm Calm - N/A   Clear
5:15 AM 28.2 °F - 27.9 °F 99% 30.04 in 10.0 mi Calm Calm - N/A   Clear
5:34 AM 27.3 °F - 27.0 °F 99% 30.05 in 10.0 mi Calm Calm - N/A   Clear
5:55 AM 28.0 °F - 27.5 °F 98% 30.05 in 10.0 mi Calm Calm - N/A   Clear
6:14 AM 28.4 °F - 27.9 °F 98% 30.06 in 10.0 mi Calm Calm - N/A   Clear
6:35 AM 27.9 °F - 27.3 °F 98% 30.06 in 10.0 mi Calm Calm - N/A   Clear
6:54 AM 27.1 °F - 26.6 °F 98% 30.06 in 10.0 mi Calm Calm - N/A   Clear
7:15 AM 27.7 °F - 27.1 °F 98% 30.07 in 10.0 mi Calm Calm - N/A   Clear
7:35 AM 28.4 °F - 27.9 °F 98% 30.07 in 10.0 mi Calm Calm - N/A   Clear
7:54 AM 30.2 °F - 29.5 °F 97% 30.08 in 10.0 mi Calm Calm - N/A   Clear
8:15 AM 32.7 °F - 31.8 °F 96% 30.08 in 10.0 mi Calm Calm - N/A   Clear
8:34 AM 35.8 °F 33.0 °F 31.6 °F 85% 30.08 in 10.0 mi NE 3.5 mph - N/A   Clear
8:55 AM 37.4 °F 33.8 °F 28.0 °F 69% 30.08 in 10.0 mi NE 4.6 mph - N/A   Clear
9:15 AM 38.5 °F 35.0 °F 27.3 °F 64% 30.09 in 10.0 mi NE 4.6 mph - N/A   Clear
9:34 AM 39.4 °F 36.1 °F 26.1 °F 59% 30.10 in 10.0 mi ENE 4.6 mph - N/A   Clear
9:55 AM 40.5 °F 35.8 °F 23.4 °F 51% 30.10 in 10.0 mi ENE 6.9 mph - N/A   Clear
10:14 AM 41.7 °F 36.1 °F 21.9 °F 45% 30.10 in 10.0 mi NE 9.2 mph - N/A   Clear
10:34 AM 42.1 °F 36.6 °F 18.5 °F 39% 30.10 in 10.0 mi NE 9.2 mph - N/A   Clear
10:55 AM 42.3 °F 37.9 °F 17.4 °F 37% 30.10 in 10.0 mi ENE 6.9 mph - N/A   Clear
11:14 AM 42.8 °F 38.0 °F 28.6 °F 57% 30.10 in 10.0 mi North 8.1 mph - N/A   Clear
11:35 AM 42.1 °F 36.6 °F 30.7 °F 64% 30.10 in 10.0 mi NNW 9.2 mph - N/A   Clear
11:54 AM 41.0 °F 35.8 °F 30.7 °F 67% 30.10 in 10.0 mi NNW 8.1 mph - N/A   Clear
12:14 PM 41.4 °F 35.7 °F 30.7 °F 66% 30.10 in 10.0 mi NNW 9.2 mph - N/A   Clear
12:35 PM 41.2 °F 35.0 °F 31.5 °F 68% 30.10 in 10.0 mi NNW 10.4 mph - N/A   Clear
12:54 PM 42.3 °F 36.3 °F 28.2 °F 58% 30.10 in 10.0 mi NNW 10.4 mph - N/A   Clear
1:14 PM 42.1 °F 36.6 °F 28.0 °F 58% 30.10 in 10.0 mi NW 9.2 mph - N/A   Clear
1:35 PM 42.1 °F 36.6 °F 30.0 °F 62% 30.10 in 10.0 mi North 9.2 mph - N/A   Clear
1:54 PM 43.2 °F 37.4 °F 29.7 °F 59% 30.09 in 10.0 mi NNW 10.4 mph - N/A   Clear
2:35 PM 43.0 °F 37.7 °F 22.8 °F 45% 30.08 in 10.0 mi NNW 9.2 mph - N/A   Clear
2:54 PM 42.6 °F 37.2 °F 25.3 °F 51% 30.08 in 10.0 mi NNW 9.2 mph - N/A   Clear
3:14 PM 42.4 °F 37.0 °F 25.7 °F 52% 30.08 in 10.0 mi NNW 9.2 mph - N/A   Clear
3:35 PM 42.8 °F 37.5 °F 24.1 °F 48% 30.07 in 10.0 mi NNW 9.2 mph - N/A   Clear
3:54 PM 44.1 °F 39.0 °F 26.1 °F 49% 30.07 in 10.0 mi NNW 9.2 mph - N/A   Clear
4:15 PM 43.7 °F 38.1 °F 21.4 °F 41% 30.06 in 10.0 mi NNW 10.4 mph - N/A   Clear
4:34 PM 44.1 °F 38.6 °F 21.0 °F 40% 30.06 in 10.0 mi NNW 10.4 mph - N/A   Clear
4:54 PM 44.1 °F 39.5 °F 21.9 °F 42% 30.05 in 10.0 mi NNW 8.1 mph - N/A   Clear
5:15 PM 44.8 °F 40.4 °F 22.1 °F 41% 30.05 in 10.0 mi NNW 8.1 mph - N/A   Clear
5:34 PM 43.9 °F 38.3 °F 25.3 °F 48% 30.05 in 10.0 mi NW 10.4 mph - N/A   Clear
5:54 PM 43.7 °F 38.6 °F 24.1 °F 46% 30.05 in 10.0 mi NW 9.2 mph - N/A   Clear
6:15 PM 43.7 °F 39.1 °F 26.1 °F 50% 30.06 in 10.0 mi NNW 8.1 mph - N/A   Clear
6:34 PM 43.9 °F 39.3 °F 23.9 °F 45% 30.06 in 10.0 mi NNW 8.1 mph - N/A   Clear
6:54 PM 43.5 °F 39.4 °F 23.0 °F 44% 30.07 in 10.0 mi NNW 6.9 mph - N/A   Clear
7:15 PM 43.2 °F 40.5 °F 24.1 °F 47% 30.07 in 10.0 mi NNW 4.6 mph - N/A   Clear
7:34 PM 42.3 °F 39.4 °F 24.1 °F 49% 30.07 in 10.0 mi NNW 4.6 mph - N/A   Clear
7:54 PM 41.2 °F 39.2 °F 25.9 °F 55% 30.07 in 10.0 mi NNW 3.5 mph - N/A   Clear
8:15 PM 39.9 °F 37.8 °F 25.9 °F 57% 30.08 in 10.0 mi NNW 3.5 mph - N/A   Clear
8:34 PM 39.4 °F 36.1 °F 25.7 °F 58% 30.07 in 10.0 mi NNW 4.6 mph - N/A   Clear
8:55 PM 37.6 °F 34.0 °F 28.2 °F 69% 30.08 in 10.0 mi NNW 4.6 mph - N/A   Clear
9:14 PM 36.9 °F - 29.1 °F 74% 30.08 in 10.0 mi Calm Calm - N/A   Clear
9:34 PM 37.6 °F - 29.1 °F 72% 30.09 in 10.0 mi Calm Calm - N/A   Clear
9:54 PM 36.7 °F - 28.8 °F 73% 30.10 in 10.0 mi Calm Calm - N/A   Clear
10:14 PM 37.0 °F - 28.0 °F 70% 30.10 in 10.0 mi Calm Calm - N/A   Clear
10:35 PM 37.2 °F - 27.3 °F 67% 30.10 in 10.0 mi Calm Calm - N/A   Clear
10:54 PM 34.3 °F 31.4 °F 28.4 °F 79% 30.11 in 10.0 mi SE 3.5 mph - N/A   Clear
11:14 PM 32.0 °F - 27.5 °F 83% 30.12 in 10.0 mi Calm Calm - N/A   Clear
11:35 PM 34.2 °F - 28.2 °F 79% 30.12 in 10.0 mi Calm Calm - N/A   Clear